Nome, AK

9:20 AM AKDT on June 27, 2017 (GMT -0800)
Nome

Weather History for PAOM - May, 2013

Change the Weather History Date:

Thursday, May 16, 2013

  Actual Average Record
Temperature  
Mean Temperature 20 °F 37 °F  
Max Temperature 27 °F 43 °F 67 °F (1983)
Min Temperature 13 °F 31 °F 10 °F (1966)
Degree Days  
Heating Degree Days 45 28  
Month to date heating degree days 646 504  
Since 1 July heating degree days 13387 12814  
Cooling Degree Days 0 0  
Month to date cooling degree days 0 0  
Year to date cooling degree days 0 0  
Moisture  
Dew Point 13 °F    
Average Humidity 0    
Maximum Humidity 0    
Minimum Humidity 0    
Precipitation  
Precipitation T in 0.03 in 0.84 in (2012)
Month to date precipitation 0.22 0.45  
Year to date precipitation 2.68 3.73  
Snow  
Snow 0.10 in 0.10 in 1.60 in (1952)
Month to date snowfall 3.3 1.7  
Since 1 July snowfall 58.2 74.8  
Snow Depth 5.00 in    
Sea Level Pressure  
Sea Level Pressure 29.53 in    
Wind  
Wind Speed 15 mph (WNW)    
Max Wind Speed 25 mph    
Max Gust Speed 30 mph    
Visibility 7 miles    
Events Snow    
T = Trace of Precipitation, MM = Missing Value Source: NWS Daily Summary

Daily Weather History Graph

Daily Weather History Graph

Search for Another Location

Airport or City:

Trip Planner

Search our weather history database for the weather conditions in past years. The results will help you decide how hot, cold, wet, or windy it might be!

Date:

Astronomy

May. 16, 2013 Rise Set
Actual Time 5:37 AM AKDT 12:21 AM AKDT
Civil Twilight 3:34 AM AKDT 2:39 AM AKDT
Nautical Twilight Sun does not set Sun does not set
Astronomical Twilight Sun does not set Sun does not set
Moon 12:20 PM AKDT (5/16) 3:55 AM AKDT (5/16)
Length of Visible Light 23h 05m
Length of Day
18h 43m
Waxing Crescent, 37% of the Moon is Illuminated
May 16
Waxing Crescent
May 17
First Quarter
May 24
Full
May 31
Last Quarter
Jun 8
New

Hourly Weather History & Observations

Time (AKDT) Temp. Windchill Dew Point Humidity Pressure Visibility Wind Dir Wind Speed Gust Speed Precip Events Conditions
12:08 AM 30.2 °F 17.8 °F 28.4 °F 93% 29.33 in 3.0 mi SSW 19.6 mph - 0.00 in Snow Light Snow
12:17 AM 30.2 °F 18.1 °F 28.4 °F 93% 29.34 in 2.5 mi SSW 18.4 mph - 0.00 in Snow Light Snow
12:44 AM 28.4 °F 17.0 °F 26.6 °F 93% 29.33 in 3.0 mi SW 15.0 mph - 0.00 in Snow Light Snow
12:53 AM 28.9 °F 17.3 °F 27.0 °F 92% 29.34 in 3.0 mi SW 16.1 mph - 0.00 in Snow Light Snow
12:59 AM 28.4 °F 14.7 °F 26.6 °F 93% 29.33 in 2.5 mi West 21.9 mph - 0.00 in Snow Light Snow
1:07 AM 26.6 °F 12.4 °F 24.8 °F 93% 29.34 in 3.0 mi West 21.9 mph - 0.00 in Snow Light Snow
1:14 AM 24.8 °F 10.0 °F 23.0 °F 93% 29.34 in 3.0 mi West 21.9 mph - 0.00 in Snow Light Snow
1:50 AM 21.2 °F 4.2 °F 19.4 °F 93% 29.36 in 3.0 mi West 25.3 mph 28.8 mph 0.00 in Snow Light Snow
1:53 AM 21.9 °F 5.1 °F 19.0 °F 89% 29.37 in 4.0 mi West 25.3 mph 28.8 mph 0.00 in Snow Light Snow
2:09 AM 21.2 °F 5.6 °F 17.6 °F 86% 29.37 in 9.0 mi WNW 20.7 mph 29.9 mph 0.00 in Snow Light Snow
2:53 AM 19.0 °F 2.7 °F 15.1 °F 85% 29.39 in 10.0 mi WNW 20.7 mph 27.6 mph 0.00 in   Mostly Cloudy
3:53 AM 17.1 °F 0.6 °F 12.9 °F 84% 29.41 in 9.0 mi WNW 19.6 mph - 0.00 in Snow Blowing Snow
4:25 AM 15.8 °F -1.1 °F 12.2 °F 86% 29.43 in 9.0 mi WNW 19.6 mph 28.8 mph N/A Snow Blowing Snow
4:53 AM 15.1 °F -2.0 °F 10.9 °F 84% 29.45 in 6.0 mi WNW 19.6 mph 27.6 mph 0.00 in Snow Light Snow
5:53 AM 12.9 °F -4.9 °F 8.1 °F 81% 29.48 in 10.0 mi WNW 19.6 mph 29.9 mph 0.00 in   Mostly Cloudy
6:53 AM 14.0 °F -3.0 °F 8.1 °F 77% 29.50 in 10.0 mi NW 18.4 mph - N/A   Mostly Cloudy
7:53 AM 14.0 °F -2.5 °F 8.1 °F 77% 29.52 in 10.0 mi WNW 17.3 mph - N/A   Mostly Cloudy
8:00 AM 14.0 °F -1.4 °F 8.6 °F 79% 29.52 in 10.0 mi WNW 15.0 mph - N/A   Overcast
8:53 AM 14.0 °F -3.0 °F 8.1 °F 77% 29.54 in 6.0 mi NW 18.4 mph - N/A   Mostly Cloudy
9:53 AM 15.1 °F -1.1 °F 8.1 °F 74% 29.55 in 10.0 mi WNW 17.3 mph - N/A   Overcast
10:53 AM 15.1 °F -1.6 °F 9.0 °F 77% 29.57 in 10.0 mi NW 18.4 mph 25.3 mph 0.00 in   Overcast
11:53 AM 15.1 °F -1.6 °F 8.1 °F 74% 29.60 in 10.0 mi NW 18.4 mph - N/A   Mostly Cloudy
12:53 PM 16.0 °F 0.1 °F 10.0 °F 77% 29.60 in 3.0 mi WNW 17.3 mph - 0.00 in Snow Light Snow
1:53 PM 16.0 °F 0.1 °F 8.1 °F 71% 29.62 in 10.0 mi West 17.3 mph - 0.00 in   Overcast
2:53 PM 17.1 °F 1.5 °F 10.0 °F 74% 29.63 in 10.0 mi WNW 17.3 mph - 0.00 in   Overcast
3:53 PM 17.1 °F 2.0 °F 8.1 °F 68% 29.64 in 10.0 mi West 16.1 mph - 0.00 in   Overcast
4:53 PM 17.1 °F 0.1 °F 9.0 °F 71% 29.65 in 7.0 mi West 20.7 mph - 0.00 in   Overcast
5:53 PM 17.1 °F 4.3 °F 10.0 °F 74% 29.66 in 9.0 mi WNW 11.5 mph - 0.00 in Snow Light Snow
6:15 PM 17.6 °F 5.7 °F 10.4 °F 73% 29.66 in 4.0 mi NW 10.4 mph - 0.00 in Snow Light Snow
6:26 PM 17.6 °F 7.3 °F 10.4 °F 73% 29.66 in 4.0 mi WNW 8.1 mph - 0.00 in Snow Light Snow
6:32 PM 17.6 °F 6.4 °F 10.4 °F 73% 29.66 in 2.5 mi WNW 9.2 mph - 0.00 in Snow Light Snow
6:53 PM 16.0 °F 5.3 °F 10.0 °F 77% 29.66 in 4.0 mi WNW 8.1 mph - 0.00 in Snow Light Snow
7:53 PM 17.1 °F 6.6 °F 9.0 °F 71% 29.67 in 10.0 mi WNW 8.1 mph - 0.00 in   Overcast
8:53 PM 16.0 °F 7.4 °F 10.9 °F 81% 29.67 in 10.0 mi West 5.8 mph - 0.00 in   Overcast
9:53 PM 17.1 °F 6.6 °F 10.9 °F 77% 29.68 in 10.0 mi West 8.1 mph - 0.00 in   Overcast
10:53 PM 16.0 °F 4.4 °F 10.0 °F 77% 29.69 in 10.0 mi West 9.2 mph - N/A   Overcast
11:53 PM 16.0 °F 5.3 °F 10.9 °F 81% 29.70 in 10.0 mi West 8.1 mph - N/A   Overcast